Location: Dos Palmas
(32.4468°N, 116.8732°W)
Time: 22:55:04
(UTC+00:00)

Cosmos 2219 Rocket - Pass Details

Date: 20 June 2021
Orbit: 829 x 845 km, 71.0° (Epoch: 01 August)

Event Time Altitude Azimuth Distance (km) Brightness Sun altitude
Exits shadow 05:00:39 28° 188° (S) 1,534 3.2 -21.2°
Maximum altitude 05:03:44 75° 108° (ESE) 875 2.1 -21.6°
Drops below altitude 10° 05:09:23 10° 24° (NNE) 2,468 4.9 -22.4°
Sets 05:11:50 0° 23° (NNE) 3,405 5.7 -22.7°
